ContactaLinksHome
    
DADES METEOROLÒGIQUES DE LES ÚLTIMES 24 HORES
 

Taire  Temperatura de l'aire  (ºC)
HumitatR  Humitat relativa de l'aire (%)
Pluja  Litres de pluja per metre cuadrat caiguts en 10 minuts (l/m²)
VelVent  Velocitat mitjana del vent (m/s)
DirVent  Direcció del vent  (º)
RadSolar  Intensitat de Radiació solar (w/m²)
PressAtm  Pressió atmosfèrica (mb)
  ***Dades sense verificar
DataTaireHumitatRPlujaVelVentDirVentRadSolarPressAtm
21/07/2019 3:50:0023.9740,01.134201019
21/07/2019 3:40:0023.9740,01.032401019
21/07/2019 3:30:0023.9740,01.333101019
21/07/2019 3:20:0023.9740,01.433001019
21/07/2019 3:10:0023.9740,01.334101019
21/07/2019 3:00:0024.0740,01.634101019
21/07/2019 2:50:0024.2740,01.435901019
21/07/2019 2:40:0024.3740,01.235501019
21/07/2019 2:30:0024.4740,00.930101019
21/07/2019 2:20:0024.3740,00.832501019
21/07/2019 2:10:0024.4740,01.033201019
21/07/2019 2:00:0024.4740,00.933301019
21/07/2019 1:50:0024.3750,01.233401019
21/07/2019 1:40:0024.4760,00.934601019
21/07/2019 1:30:0024.4760,00.535901019
21/07/2019 1:20:0024.5770,00.2101019
21/07/2019 1:10:0024.5770,00.55401019
21/07/2019 1:00:0024.6760,00.38501019
21/07/2019 0:50:0024.7760,00.535801019
21/07/2019 0:40:0024.7760,01.23801019
21/07/2019 0:30:0024.6770,01.32001019
21/07/2019 0:20:0024.6780,01.2201019
21/07/2019 0:10:0024.6790,01.63501019
21/07/2019 0:00:0024.6800,01.83601019
20/07/2019 23:50:0024.5800,01.93101019
20/07/2019 23:40:0024.6810,02.43901019
20/07/2019 23:30:0024.5810,02.42701019
20/07/2019 23:20:0024.6810,02.43901019
20/07/2019 23:10:0024.6820,02.33901019
20/07/2019 23:00:0024.7820,02.35201019
20/07/2019 22:50:0024.8820,02.55401019
20/07/2019 22:40:0024.8820,02.66101019
20/07/2019 22:30:0024.8820,02.56201019
20/07/2019 22:20:0024.9820,03.47501018
20/07/2019 22:10:0024.9820,03.87201018
20/07/2019 22:00:0024.9810,03.87301018
20/07/2019 21:50:0025.0820,03.87001018
20/07/2019 21:40:0024.9820,04.07301018
20/07/2019 21:30:0025.0820,03.87701018
20/07/2019 21:20:0025.0820,03.77601018
20/07/2019 21:10:0025.0820,03.47201018
20/07/2019 21:00:0024.9820,03.38001018
20/07/2019 20:50:0024.9820,03.37701018
20/07/2019 20:40:0025.0820,03.37701018
20/07/2019 20:30:0025.0820,03.37601018
20/07/2019 20:20:0025.0820,03.08001017
20/07/2019 20:10:0025.0810,02.67501017
20/07/2019 20:00:0025.0810,02.78901017
20/07/2019 19:50:0025.1810,02.58801017
20/07/2019 19:40:0025.2810,02.29501017
20/07/2019 19:30:0025.2800,02.010401017
20/07/2019 19:20:0025.2800,02.810931017
20/07/2019 19:10:0025.2800,02.111291017
20/07/2019 19:00:0025.3800,02.1107151017
20/07/2019 18:50:0025.3800,02.2127321016
20/07/2019 18:40:0025.4800,02.4138551016
20/07/2019 18:30:0025.5790,02.5127721016
20/07/2019 18:20:0025.5790,02.61441091016
20/07/2019 18:10:0025.6780,03.01441371016
20/07/2019 18:00:0025.5780,03.01491671016
20/07/2019 17:50:0025.5790,02.91481961016
20/07/2019 17:40:0025.6780,03.01622271016
20/07/2019 17:30:0025.6780,02.51582551016
20/07/2019 17:20:0025.6770,02.31632861016
20/07/2019 17:10:0025.6780,02.61743171016
20/07/2019 17:00:0025.6770,03.51693431016
20/07/2019 16:50:0025.6780,03.71663701016
20/07/2019 16:40:0025.6780,03.91724011016
20/07/2019 16:30:0025.6780,04.01674301016
20/07/2019 16:20:0025.6780,04.01714141016
20/07/2019 16:10:0025.6790,03.91664621016
20/07/2019 16:00:0025.5790,04.01735051016
20/07/2019 15:50:0025.5800,04.01845341016
20/07/2019 15:40:0025.5800,04.61805621016
20/07/2019 15:30:0025.5810,04.61745901016
20/07/2019 15:20:0025.5810,04.71796191016
20/07/2019 15:10:0025.5810,05.31786511016
20/07/2019 15:00:0025.4820,05.01766811016
20/07/2019 14:50:0025.4820,05.21777091016
20/07/2019 14:40:0025.4830,05.61717341016
20/07/2019 14:30:0025.5820,05.71717581016
20/07/2019 14:20:0025.5810,05.71767831016
20/07/2019 14:10:0025.4810,05.51738091016
20/07/2019 14:00:0025.5810,05.71668321016
20/07/2019 13:50:0025.5810,05.41658501016
20/07/2019 13:40:0025.5800,05.31718631016
20/07/2019 13:30:0025.5800,05.21668781016
20/07/2019 13:20:0025.4800,05.41648931016
20/07/2019 13:10:0025.4810,05.11629061016
20/07/2019 13:00:0025.4820,05.41639191016
20/07/2019 12:50:0025.3820,05.31569281016
20/07/2019 12:40:0025.3830,05.01589371016
20/07/2019 12:30:0025.2840,04.81639391016
20/07/2019 12:20:0025.1830,05.21649411016
20/07/2019 12:10:0025.2840,05.11619401016
20/07/2019 12:00:0025.1840,05.11639391016
20/07/2019 11:50:0025.2840,04.81569351016
20/07/2019 11:40:0025.1830,04.71619351016
20/07/2019 11:30:0025.0820,05.21629321016
20/07/2019 11:20:0025.0820,05.51589271016
20/07/2019 11:10:0025.2820,05.61599201016
20/07/2019 11:00:0025.1810,05.41589091016
20/07/2019 10:50:0025.1800,05.21558971016
20/07/2019 10:40:0025.2790,04.61488851016
20/07/2019 10:30:0025.2770,04.51518721016
20/07/2019 10:20:0025.1760,04.21458601016
20/07/2019 10:10:0025.1760,04.31508441015
20/07/2019 10:00:0025.2760,04.61488271015
20/07/2019 9:50:0025.3730,04.71498111015
20/07/2019 9:40:0025.3720,04.81527891015
20/07/2019 9:30:0025.6720,04.71537611015
20/07/2019 9:20:0026.4670,04.11457301015
20/07/2019 9:10:0027.6630,03.01466951015
20/07/2019 9:00:0027.6460,01.11216791015
20/07/2019 8:50:0027.2460,01.936671015
20/07/2019 8:40:0027.2450,01.6206341015
20/07/2019 8:30:0027.1470,01.43255141016
20/07/2019 8:20:0027.0500,01.93055931016
20/07/2019 8:10:0026.8540,01.42885471016
20/07/2019 8:00:0026.5570,01.83145471016
20/07/2019 7:50:0026.3590,01.92875111015
20/07/2019 7:40:0026.2600,02.12974191015
20/07/2019 7:30:0026.0620,02.22904581015
20/07/2019 7:20:0025.7640,02.32994381015
20/07/2019 7:10:0025.5660,02.33383821015
20/07/2019 7:00:0025.2680,02.23203151015
20/07/2019 6:50:0024.9690,02.23003411015
20/07/2019 6:40:0024.6700,02.72993021015
20/07/2019 6:30:0024.3710,02.83232581015
20/07/2019 6:20:0024.1710,02.63152191015
20/07/2019 6:10:0024.0730,02.23191101015
20/07/2019 6:00:0023.9730,02.3314731015
20/07/2019 5:50:0023.8750,02.1332621015
20/07/2019 5:40:0023.7750,02.3325521015
20/07/2019 5:30:0023.5750,02.5335421015
20/07/2019 5:20:0023.5750,02.5330331015
20/07/2019 5:10:0023.5760,02.1308241015
20/07/2019 5:00:0023.6750,02.4326161014
20/07/2019 4:50:0023.6750,01.932081014
20/07/2019 4:40:0023.7750,01.832921014
20/07/2019 4:30:0023.7740,02.231501014
20/07/2019 4:20:0023.7740,01.830601014
20/07/2019 4:10:0023.7740,01.932301014
20/07/2019 4:00:0023.8740,01.832801014

ÚLTIMES FOTOS WEBCAM
Imatges del Pont
ÚLTIMES DADES

21/07/2019  
5:50h Local  (3:50 GMT)
 
 Velocitat mitjana del Vent
   1,1 m/s
 Direcció del Vent
   342º
 Humitat Relativa
   74 %
 Temperatura Aparent
   26,4 ºC
 Pluja Acumulada
   0,0 l/m²
   Index UV    BAIX
 Temperatura de l'aigua    N/A
 Alçada d'ona    N/A
 Direcció d'ona    N/A
 Velocitat del corrent    N/A
 Direcció del corrent    N/A